Weather History for McGuire AFB, NJ

Change the Weather History Date:

Thursday, November 3, 2011

  Actual Average Record
Temperature  
Mean Temperature 48 °F -  
Max Temperature 63 °F 58 °F 87 °F (2003)
Min Temperature 33 °F 38 °F 28 °F (2010)
Degree Days  
Heating Degree Days 17    
Moisture  
Dew Point 40 °F    
Average Humidity 77    
Maximum Humidity 93    
Minimum Humidity 47    
Precipitation  
Precipitation 0.00 in - - ()
Sea Level Pressure  
Sea Level Pressure 30.09 in    
Wind  
Wind Speed 2 mph (SSW)    
Max Wind Speed 12 mph    
Max Gust Speed -    
Visibility 10 miles    
Events      
Averages and records for this station are not official NWS values.
T = Trace of Precipitation, MM = Missing Value Source: NWS Daily Summary

Daily Weather History Graph

Daily Weather History Graph

Search for Another Location

Airport:

Trip Planner

Search our weather history database for the weather conditions in past years. The results will help you decide how hot, cold, wet, or windy it might be!

Date:

Astronomy

Nov. 03, 2011 Rise Set
Actual Time 7:29 AM EDT 5:53 PM EDT
Civil Twilight 7:01 AM EDT 6:22 PM EDT
Nautical Twilight 6:29 AM EDT 6:54 PM EDT
Astronomical Twilight 5:57 AM EDT 7:25 PM EDT
Moon 2:16 PM EDT (11/3) 12:39 AM EDT (11/3)
Length of Visible Light 11h 20m
Length of Day
10h 24m
First Quarter, 60% of the Moon is Illuminated
Nov 3
First Quarter
Nov 10
Full
Nov 18
Last Quarter
Nov 25
New
Dec 2
First Quarter

Hourly Weather History & Observations

Time (EDT) Temp. Windchill Dew Point Humidity Pressure Visibility Wind Dir Wind Speed Gust Speed Precip Events Conditions
12:55 AM 41.2 °F - 37.9 °F 88% 30.25 in 10.0 mi Calm Calm - N/A   Clear
1:55 AM 41.2 °F - 38.1 °F 89% 30.23 in 10.0 mi Calm Calm - N/A   Clear
2:55 AM 38.3 °F - 35.6 °F 90% 30.22 in 10.0 mi Calm Calm - N/A   Clear
3:55 AM 36.1 °F - 34.2 °F 93% 30.22 in 10.0 mi Calm Calm - N/A   Clear
4:55 AM 35.6 °F - 33.4 °F 92% 30.20 in 10.0 mi Calm Calm - N/A   Clear
5:55 AM 34.5 °F - 32.4 °F 92% 30.21 in 10.0 mi Calm Calm - N/A   Clear
6:55 AM 33.6 °F - 31.6 °F 92% 30.19 in 10.0 mi Calm Calm - N/A   Clear
7:55 AM 33.6 °F - 31.5 °F 92% 30.19 in 10.0 mi Calm Calm - N/A   Clear
8:55 AM 41.0 °F - 39.2 °F 93% 30.18 in 10.0 mi Calm Calm - N/A   Clear
9:55 AM 48.7 °F - 44.1 °F 84% 30.16 in 10.0 mi SSW 8.1 mph - N/A   Clear
10:55 AM 54.5 °F - 43.9 °F 67% 30.14 in 10.0 mi SSW 6.9 mph - N/A   Clear
11:55 AM 59.2 °F - 44.1 °F 57% 30.12 in 10.0 mi SSW 8.1 mph - N/A   Clear
12:55 PM 61.2 °F - 42.3 °F 50% 30.08 in 10.0 mi SSW 11.5 mph - N/A   Clear
1:55 PM 63.3 °F - 43.7 °F 49% 30.04 in 10.0 mi SW 10.4 mph - N/A   Clear
2:55 PM 63.5 °F - 42.6 °F 47% 30.01 in 10.0 mi SW 10.4 mph - N/A   Clear
3:55 PM 62.2 °F - 41.9 °F 47% 29.99 in 10.0 mi SW 6.9 mph - N/A   Clear
4:55 PM 60.1 °F - 42.8 °F 53% 29.97 in 10.0 mi SW 6.9 mph - N/A   Clear
5:55 PM 56.8 °F - 43.5 °F 61% 29.96 in 10.0 mi South 6.9 mph - N/A   Clear
6:55 PM 51.4 °F - 42.4 °F 71% 29.97 in 10.0 mi South 3.5 mph - N/A   Clear
7:55 PM 47.8 °F - 41.7 °F 79% 29.97 in 10.0 mi Calm Calm - N/A   Clear
8:55 PM 46.6 °F - 42.3 °F 85% 29.97 in 10.0 mi Calm Calm - N/A   Clear
9:55 PM 44.2 °F 42.7 °F 41.5 °F 90% 29.98 in 10.0 mi SSE 3.5 mph - N/A   Clear
10:55 PM 43.2 °F - 41.2 °F 93% 29.97 in 10.0 mi Calm Calm - N/A   Clear
11:55 PM 45.0 °F 43.5 °F 43.0 °F 93% 29.95 in 10.0 mi SW 3.5 mph - N/A   Clear